Flag for United Kingdom Weather past 2 weeks in Poole, England, United Kingdom

Now
63 °F

Partly sunny.


Feels Like: 63 °F
Forecast: 45 / 62 °F
Wind: 8 mph from Northwest

Location: Bournemouth Airport

Current Time: May 24, 2015 at 1:22:44 PM

Latest Report: May 24, 2015 at 12:50 PM


Visibility: N/A

Pressure: 30.12 "Hg

Humidity: 68%

Dew point: 52 °F

Location of PooleLocation

Historic Weather in Poole — Graph

°F

Poole temperature yesterday

Maximum temperature yesterday: 70 °F (at 1:20 PM)
Minimum temperature yesterday: 55 °F (at 1:20 AM)
Average temperature yesterday: 62 °F

Past Weeks' High & Low Weather Summary

 TemperatureHumidityPressure
High70 °F (May 23, 1:20 PM)100% (May 11, 4:50 AM)30.39 "Hg (May 11, 4:50 AM)
Low34 °F (May 13, 4:50 AM)44% (May 18, 4:50 PM)29.65 "Hg (May 19, 5:20 AM)
Average54 °F74%30.11 "Hg
* Reported May 9 12:50 PM — May 24 12:20 PM, Poole, Weather by CustomWeather, © 2015

Note: Actual official high and low records may vary slightly from our data, if they occured in-between our weather recording intervals... More about our weather records

Advertising

Poole weather history for previous 24 hours

 ConditionsComfort  
Time TempWeatherWind HumidityBarometerVisibility
12:20 PM
Sun, May 24
63 °FScattered clouds.9 mph68%30.12 "HgN/A
11:50 AM63 °FScattered clouds.12 mph68%30.12 "HgN/A
11:20 AM63 °FScattered clouds.9 mph68%30.12 "HgN/A
10:50 AM61 °FScattered clouds.6 mph72%30.12 "HgN/A
10:20 AM61 °FScattered clouds.8 mph68%30.15 "HgN/A
9:50 AM59 °FScattered clouds.6 mph72%30.15 "HgN/A
9:20 AM59 °FScattered clouds.6 mph72%30.15 "HgN/A
8:50 AM59 °FPassing clouds.6 mph72%30.15 "HgN/A
8:20 AM57 °FPassing clouds.5 mph77%30.15 "HgN/A
7:50 AM55 °FPartly sunny.5 mph88%30.15 "HgN/A
7:20 AM55 °FPartly sunny.5 mph82%30.15 "HgN/A
6:50 AM55 °FPartly sunny.5 mph82%30.15 "HgN/A
6:20 AM54 °FPartly sunny.2 mph94%30.15 "HgN/A
5:50 AM54 °FLow clouds.2 mph88%30.15 "HgN/A
5:20 AM54 °FLow clouds.3 mph88%30.15 "HgN/A
4:50 AM54 °FLow clouds.2 mph88%30.15 "HgN/A
11:20 PM
Sat, May 23
55 °FPassing clouds.8 mph82%30.21 "HgN/A
10:50 PM55 °FPassing clouds.8 mph88%30.21 "HgN/A
10:20 PM55 °FPassing clouds.10 mph88%30.21 "HgN/A
9:50 PM55 °FPassing clouds.10 mph88%30.21 "HgN/A
9:20 PM55 °FPassing clouds.13 mph88%30.21 "HgN/A
8:50 PM57 °FPassing clouds.14 mph82%30.21 "HgN/A
8:20 PM63 °FScattered clouds.8 mph64%30.21 "HgN/A
7:50 PM63 °FScattered clouds.10 mph59%30.18 "HgN/A
7:20 PM66 °FScattered clouds.8 mph56%30.18 "HgN/A
6:50 PM68 °FPassing clouds.8 mph53%30.18 "HgN/A
6:20 PM68 °FPassing clouds.5 mph53%30.18 "HgN/A
5:50 PM68 °FScattered clouds.6 mph53%30.18 "HgN/A
5:20 PM68 °FScattered clouds.7 mph53%30.18 "HgN/A
4:50 PM66 °FScattered clouds.2 mph52%30.21 "HgN/A
4:20 PM68 °FScattered clouds.2 mph49%30.21 "HgN/A
3:50 PM68 °FScattered clouds.7 mph49%30.21 "HgN/A
3:20 PM68 °FScattered clouds.6 mph49%30.21 "HgN/A
2:50 PM66 °FScattered clouds.10 mph52%30.21 "HgN/A
2:20 PM66 °FScattered clouds.8 mph52%30.21 "HgN/A
1:50 PM66 °FScattered clouds.8 mph52%30.21 "HgN/A
1:20 PM70 °FPassing clouds.7 mph53%30.24 "HgN/A
Weather by CustomWeather, © 2015

See weather overviewHow to use our weather pages